Flag for U.S.A. Weather past 2 weeks in Winder, Georgia, U.S.A.

Now
91 °F

Scattered clouds.


Feels Like: 99 °F
Forecast: 71 / 88 °F
Wind: 10 mph from West

Location: Winder-Barrow Airport

Current Time: Jul 28, 2014 at 1:24:00 PM

Latest Report: Jul 28, 2014 at 12:55 PM


Visibility: 10 mi

Pressure: 29.96 "Hg

Humidity: 53%

Dew point: 72 °F

Location of WinderLocation

Historic Weather in Winder — Graph

°F

Winder temperature yesterday

Maximum temperature yesterday: 96 °F (at 4:55 PM)
Minimum temperature yesterday: 73 °F (at 6:15 AM)
Average temperature yesterday: 85 °F

Past Weeks' High & Low Weather Summary

 TemperatureHumidityPressure
High96 °F (Jul 27, 4:55 PM)100% (Jul 18, 8:35 AM)30.20 "Hg (Jul 18, 8:35 AM)
Low64 °F (Jul 17, 5:55 AM)34% (Jul 16, 6:55 PM)29.85 "Hg (Jul 15, 6:35 PM)
Average79 °F78%30.05 "Hg
* Reported Jul 13 12:15 PM — Jul 28 12:15 PM, Winder, Weather by CustomWeather, © 2014

Note: Actual official high and low records may vary slightly from our data, if they occured in-between our weather recording intervals... More about our weather records

Advertising

Winder weather history for previous 24 hours

 ConditionsComfort  
Time TempWeatherWind HumidityBarometerVisibility
12:15 PM
Jul 28
90 °FSunny.16 mph56%29.96 "Hg10 mi
11:55 AM90 °FSunny.13 mph58%29.96 "Hg10 mi
11:35 AM89 °FSunny.14 mph60%29.96 "Hg10 mi
11:15 AM89 °FSunny.9 mph62%29.96 "Hg10 mi
10:55 AM87 °FScattered clouds.14 mph64%29.96 "Hg10 mi
10:35 AM87 °FScattered clouds.14 mph67%29.96 "Hg10 mi
10:15 AM86 °FSunny.10 mph69%29.96 "Hg10 mi
9:55 AM85 °FSunny.14 mph69%29.97 "Hg10 mi
9:35 AM85 °FSunny.9 mph69%29.97 "Hg10 mi
9:15 AM83 °FSunny.8 mph72%29.96 "Hg10 mi
8:55 AM82 °FSunny.8 mph74%29.96 "Hg10 mi
8:35 AM81 °FSunny.7 mph76%29.96 "Hg10 mi
8:15 AM81 °FScattered clouds.8 mph77%29.95 "Hg10 mi
7:55 AM81 °FSunny.8 mph79%29.95 "Hg10 mi
7:35 AM81 °FClear.9 mph84%29.94 "Hg10 mi
7:15 AM80 °FClear.7 mph88%29.94 "Hg10 mi
6:55 AM81 °FClear.6 mph87%29.92 "Hg10 mi
6:35 AM81 °FClear.9 mph87%29.93 "Hg10 mi
6:15 AM81 °FClear.7 mph88%29.94 "Hg10 mi
5:55 AM81 °FPassing clouds.5 mph87%29.93 "Hg10 mi
5:35 AM81 °FPassing clouds.6 mph86%29.93 "Hg10 mi
5:15 AM81 °FClear.8 mph85%29.94 "Hg10 mi
4:55 AM82 °FPassing clouds.5 mph82%29.94 "Hg10 mi
4:35 AM83 °FPartly cloudy.8 mph79%29.95 "Hg10 mi
4:15 AM83 °FPassing clouds.9 mph77%29.95 "Hg10 mi
3:55 AM84 °FPartly cloudy.8 mph76%29.95 "Hg10 mi
3:15 AM83 °FClear.8 mph79%29.95 "Hg10 mi
2:55 AM83 °FClear.7 mph79%29.95 "Hg10 mi
2:15 AM83 °FClear.7 mph77%29.95 "Hg10 mi
1:55 AM84 °FClear.6 mph77%29.96 "Hg10 mi
1:35 AM84 °FClear.8 mph77%29.96 "Hg10 mi
1:15 AM84 °FClear.7 mph76%29.96 "Hg10 mi
12:55 AM83 °FClear.9 mph79%29.97 "Hg10 mi
12:35 AM83 °FClear.7 mph78%29.96 "Hg10 mi
12:15 AM83 °FClear.6 mph78%29.95 "Hg10 mi
11:55 PM
Jul 27
84 °FClear.6 mph77%29.95 "Hg10 mi
11:35 PM84 °FClear.6 mph76%29.97 "Hg10 mi
11:15 PM85 °FClear.5 mph73%29.98 "Hg10 mi
10:15 PM86 °FClear.7 mph71%29.97 "Hg10 mi
9:55 PM86 °FClear.3 mph70%29.98 "Hg10 mi
9:35 PM87 °FSunny.7 mph68%29.97 "Hg10 mi
9:15 PM88 °FSunny.7 mph66%29.96 "Hg10 mi
8:55 PM88 °FSunny.6 mph65%29.97 "Hg10 mi
8:35 PM89 °FSunny.6 mph64%29.97 "Hg10 mi
8:15 PM90 °FSunny.6 mph60%29.97 "Hg10 mi
7:15 PM93 °FSunny.7 mph55%29.96 "Hg10 mi
6:55 PM94 °FSunny.7 mph52%29.96 "Hg10 mi
6:35 PM95 °FSunny.9 mph49%29.96 "Hg10 mi
6:15 PM95 °FSunny.10 mph49%29.96 "Hg10 mi
5:55 PM96 °FScattered clouds.7 mph50%29.96 "Hg10 mi
5:35 PM95 °FScattered clouds.9 mph50%29.97 "Hg10 mi
5:15 PM95 °FBroken clouds.6 mph50%29.98 "Hg10 mi
4:55 PM96 °FScattered clouds.8 mph50%29.99 "Hg10 mi
4:35 PM96 °FScattered clouds.9 mph50%29.99 "Hg10 mi
4:15 PM95 °FPartly sunny.9 mph52%30.00 "Hg10 mi
3:55 PM94 °FPartly sunny.12 mph53%30.00 "Hg10 mi
3:35 PM95 °FScattered clouds.6 mph53%30.00 "Hg10 mi
3:15 PM95 °FPartly sunny.12 mph52%30.01 "Hg10 mi
2:55 PM95 °FScattered clouds.7 mph52%30.01 "Hg10 mi
2:35 PM94 °FScattered clouds.8 mph54%30.03 "Hg10 mi
2:15 PM94 °FBroken clouds.14 mph55%30.03 "Hg10 mi
1:55 PM94 °FPartly sunny.9 mph56%30.04 "Hg10 mi
1:35 PM92 °FScattered clouds.7 mph57%30.05 "Hg10 mi
1:15 PM92 °FScattered clouds.14 mph59%30.05 "Hg10 mi
Weather by CustomWeather, © 2014

See weather overviewHow to use our weather pages